Home   Weather   Minsk   Past weeks

Flag for Belarus Past Weather in Minsk, Belarus — Yesterday and Last 2 Weeks

Now
41 °F

Overcast.


Feels Like: 35 °F
Forecast: 24 / 28 °F
Wind: 10 mph from Northwest

Location: Loshitsa / Minsk International 1

Current Time: Dec 10, 2016 at 12:04:08 pm

Latest Report: Dec 10, 2016 at 11:00 am


Visibility: N/A

Pressure: 29.71 "Hg

Humidity: 87%

Dew Point: 37 °F

Location of MinskLocation

Past Weather in Minsk — Graph

°F

Minsk Temperature Yesterday

Maximum temperature yesterday: 43 °F (at 7:00 am)
Minimum temperature yesterday: 43 °F (at 7:00 am)
Average temperature yesterday: 43 °F

High & Low Weather Summary for the Past Weeks

 TemperatureHumidityPressure
High43 °F (Dec 9, 7:00 am)100% (Nov 28, 7:00 am)30.48 "Hg (Nov 28, 7:00 am)
Low12 °F (Dec 7, 7:00 am)64% (Dec 2, 2:00 pm)29.39 "Hg (Nov 27, 5:00 pm)
Average29 °F88%29.84 "Hg
* Reported Nov 25 11:00 am — Dec 10 11:00 am, Minsk, Weather by CustomWeather, © 2016

Note: Actual official high and low records may vary slightly from our data, if they occured in-between our weather recording intervals... More about our weather records

Advertising

Minsk Weather History for the Previous 24 Hours

Scroll right to see more
 ConditionsComfort  
Time TempWeatherWind HumidityBarometerVisibility
11:00 am
Sat, Dec 10
41 °FOvercast.10 mph87%29.71 "HgN/A
10:00 am41 °FOvercast.10 mph87%29.71 "HgN/A
9:00 am41 °FOvercast.15 mph87%29.71 "HgN/A
8:00 am41 °FOvercast.15 mph87%29.71 "HgN/A
7:00 am41 °FOvercast.15 mph87%29.74 "HgN/A
5:30 pm
Fri, Dec 9
43 °FFog.15 mph93%29.65 "Hg2 mi
5:00 pm43 °FFog.15 mph93%29.65 "Hg2 mi
4:30 pm43 °FFog.13 mph93%29.68 "Hg2 mi
4:00 pm43 °FDrizzle. Fog.13 mph93%29.68 "Hg2 mi
3:30 pm43 °FDrizzle. Fog.13 mph93%29.68 "Hg2 mi
3:00 pm43 °FDrizzle. Fog.15 mph93%29.68 "Hg2 mi
2:30 pm43 °FDrizzle. Fog.15 mph93%29.68 "Hg2 mi
2:00 pm43 °FDrizzle. Fog.15 mph93%29.68 "Hg2 mi
1:30 pm43 °FDrizzle. Fog.13 mph93%29.68 "Hg2 mi
1:00 pm43 °FDrizzle. Fog.17 mph93%29.68 "Hg2 mi
12:30 pm43 °FDrizzle. Fog.15 mph93%29.68 "Hg2 mi
12:00 pm43 °FDrizzle. Fog.13 mph93%29.68 "Hg2 mi
Weather by CustomWeather, © 2016

See weather overviewHow to use our weather pages